When you browse on this site, cookies collect data to enhance your experience and personalize the content and advertising you see.
Visit our Privacy Policy to learn more. By continuing to use the site, you agree to this use of cookies and data.
  • In Slovakia
  • List of Countries
  • For 7 days
  • Water Temperature
  • Satellite Maps
  • Weather Map
  • Weather Widgets
  • user-avatar
    Login

    Hourly Weather Idzhewan

    Today, 25 June, Tuesday

    Time Temperature Precipitation Wind Pressure Humidity
    00:00 +22°C° 0.2 mm 1 mps 694 mmHg 84%
    01:00 +22°C° 0.3 mm 1 mps 694 mmHg 85%
    02:00 +22°C° 0.3 mm 1 mps 694 mmHg 86%
    03:00 +21°C° 0.3 mm 1 mps 693 mmHg 87%
    04:00 +22°C° 0 mm 1 mps 694 mmHg 86%
    05:00 +23°C° 0 mm 1 mps 694 mmHg 86%
    06:00 +23°C° 0 mm 1 mps 694 mmHg 85%
    07:00 +25°C° 0 mm 1 mps 694 mmHg 80%
    08:00 +26°C° 0 mm 1 mps 694 mmHg 75%
    09:00 +28°C° 0 mm 1 mps 694 mmHg 71%
    10:00 +29°C° 0 mm 2 mps 694 mmHg 69%
    11:00 +29°C° 0 mm 2 mps 694 mmHg 67%
    12:00 +30°C° 0 mm 2 mps 694 mmHg 65%
    13:00 +30°C° 0.1 mm 2 mps 694 mmHg 64%
    14:00 +31°C° 0.1 mm 2 mps 694 mmHg 63%
    15:00 +31°C° 0.1 mm 1 mps 694 mmHg 62%
    16:00 +31°C° 0.1 mm 1 mps 694 mmHg 64%
    17:00 +30°C° 0.1 mm 1 mps 694 mmHg 67%
    18:00 +30°C° 0.1 mm 1 mps 693 mmHg 69%
    19:00 +28°C° 0.4 mm 1 mps 694 mmHg 72%
    20:00 +26°C° 0.4 mm 1 mps 694 mmHg 75%
    21:00 +24°C° 0.4 mm 1 mps 694 mmHg 78%
    22:00 +24°C° 0 mm 2 mps 694 mmHg 78%
    23:00 +23°C° 0 mm 2 mps 694 mmHg 77%

    Tomorrow, 26 June, Wednesday

    Time Temperature Precipitation Wind Pressure Humidity
    00:00 +23°C° 0 mm 2 mps 694 mmHg 77%
    01:00 +23°C° 0 mm 2 mps 694 mmHg 77%
    02:00 +22°C° 0 mm 1 mps 694 mmHg 77%
    03:00 +22°C° 0 mm 1 mps 694 mmHg 77%
    04:00 +23°C° 0 mm 1 mps 694 mmHg 77%
    05:00 +23°C° 0 mm 1 mps 694 mmHg 77%
    06:00 +24°C° 0 mm 1 mps 694 mmHg 78%
    07:00 +25°C° 0 mm 1 mps 694 mmHg 72%
    08:00 +27°C° 0 mm 1 mps 695 mmHg 67%
    09:00 +28°C° 0 mm 1 mps 695 mmHg 62%
    10:00 +29°C° 0.3 mm 2 mps 694 mmHg 61%
    11:00 +30°C° 0.3 mm 2 mps 694 mmHg 60%
    12:00 +31°C° 0.3 mm 2 mps 694 mmHg 59%
    13:00 +31°C° 0.1 mm 2 mps 694 mmHg 57%
    14:00 +31°C° 0.1 mm 2 mps 693 mmHg 56%
    15:00 +32°C° 0.1 mm 2 mps 693 mmHg 55%
    16:00 +31°C° 0.6 mm 1 mps 693 mmHg 59%
    17:00 +30°C° 0.6 mm 1 mps 693 mmHg 64%
    18:00 +29°C° 0.6 mm 1 mps 693 mmHg 68%
    19:00 +28°C° 0.2 mm 1 mps 693 mmHg 69%
    20:00 +26°C° 0.2 mm 1 mps 693 mmHg 70%
    21:00 +24°C° 0.2 mm 1 mps 693 mmHg 70%
    22:00 +24°C° 0.1 mm 1 mps 693 mmHg 71%
    23:00 +23°C° 0.1 mm 1 mps 693 mmHg 71%

    Day after tomorrow, 27 June, Thursday

    Time Temperature Precipitation Wind Pressure Humidity
    00:00 +23°C° 0.1 mm 1 mps 692 mmHg 71%
    01:00 +22°C° 0.1 mm 1 mps 692 mmHg 73%
    02:00 +22°C° 0.1 mm 1 mps 692 mmHg 75%
    03:00 +21°C° 0.1 mm 1 mps 692 mmHg 77%
    04:00 +22°C° 0.1 mm 1 mps 692 mmHg 78%
    05:00 +22°C° 0.1 mm 1 mps 692 mmHg 78%
    06:00 +23°C° 0.1 mm 1 mps 692 mmHg 78%
    07:00 +24°C° 0 mm 1 mps 692 mmHg 76%
    08:00 +25°C° 0 mm 1 mps 692 mmHg 73%
    09:00 +26°C° 0 mm 2 mps 692 mmHg 70%
    10:00 +27°C° 0 mm 2 mps 692 mmHg 70%
    11:00 +27°C° 0 mm 2 mps 691 mmHg 70%
    12:00 +27°C° 0 mm 2 mps 691 mmHg 70%
    13:00 +28°C° 0.1 mm 2 mps 691 mmHg 67%
    14:00 +29°C° 0.1 mm 2 mps 690 mmHg 65%
    15:00 +29°C° 0.1 mm 2 mps 690 mmHg 63%
    16:00 +29°C° 0.1 mm 2 mps 690 mmHg 65%
    17:00 +28°C° 0.1 mm 2 mps 690 mmHg 68%
    18:00 +27°C° 0.1 mm 2 mps 690 mmHg 71%
    19:00 +26°C° 0.2 mm 1 mps 690 mmHg 74%
    20:00 +24°C° 0.2 mm 1 mps 690 mmHg 77%
    21:00 +21°C° 0.2 mm 0 mps 690 mmHg 81%
    22:00 +20°C° 0 mm 0 mps 690 mmHg 81%
    23:00 +22°C° 0 mm 1 mps 690 mmHg 82%

    28 June, Friday

    Time Temperature Precipitation Wind Pressure Humidity
    00:00 +21°C° 0 mm 1 mps 689 mmHg 83%
    01:00 +20°C° 0 mm 1 mps 689 mmHg 84%
    02:00 +20°C° 0 mm 1 mps 689 mmHg 85%
    03:00 +19°C° 0 mm 1 mps 689 mmHg 87%
    04:00 +20°C° 0.2 mm 1 mps 689 mmHg 86%
    05:00 +18°C° 0.2 mm 0 mps 689 mmHg 85%
    06:00 +19°C° 0.2 mm 0 mps 688 mmHg 85%
    07:00 +21°C° 0.4 mm 1 mps 688 mmHg 82%
    08:00 +22°C° 0.4 mm 1 mps 688 mmHg 80%
    09:00 +23°C° 0.4 mm 1 mps 688 mmHg 78%
    10:00 +23°C° 0.1 mm 1 mps 688 mmHg 76%
    11:00 +24°C° 0.1 mm 2 mps 687 mmHg 74%
    12:00 +25°C° 0.1 mm 2 mps 687 mmHg 72%
    13:00 +25°C° 0.1 mm 2 mps 687 mmHg 70%
    14:00 +26°C° 0.1 mm 2 mps 687 mmHg 69%
    15:00 +26°C° 0.1 mm 2 mps 686 mmHg 67%
    16:00 +26°C° 0.1 mm 1 mps 686 mmHg 69%
    17:00 +26°C° 0.1 mm 1 mps 687 mmHg 71%
    18:00 +24°C° 0.1 mm 0 mps 687 mmHg 72%
    19:00 +24°C° 0.3 mm 1 mps 687 mmHg 75%
    20:00 +23°C° 0.3 mm 1 mps 687 mmHg 78%
    21:00 +22°C° 0.3 mm 1 mps 688 mmHg 81%
    22:00 +22°C° 0.1 mm 1 mps 687 mmHg 81%
    23:00 +22°C° 0.1 mm 1 mps 687 mmHg 81%

    29 June, Saturday

    Time Temperature Precipitation Wind Pressure Humidity
    00:00 +22°C° 0.1 mm 1 mps 687 mmHg 81%
    01:00 +21°C° 0.1 mm 1 mps 687 mmHg 82%
    02:00 +21°C° 0.1 mm 1 mps 687 mmHg 83%
    03:00 +21°C° 0.1 mm 1 mps 687 mmHg 84%
    04:00 +21°C° 0 mm 1 mps 686 mmHg 83%
    05:00 +22°C° 0 mm 1 mps 686 mmHg 83%
    06:00 +22°C° 0 mm 1 mps 686 mmHg 82%
    07:00 +23°C° 0 mm 1 mps 687 mmHg 77%
    08:00 +24°C° 0 mm 1 mps 687 mmHg 72%
    09:00 +26°C° 0 mm 2 mps 687 mmHg 67%
    10:00 +26°C° 0.4 mm 2 mps 687 mmHg 66%
    11:00 +27°C° 0.4 mm 2 mps 686 mmHg 65%
    12:00 +27°C° 0.4 mm 2 mps 686 mmHg 64%
    13:00 +28°C° 0.5 mm 2 mps 686 mmHg 63%
    14:00 +28°C° 0.5 mm 2 mps 685 mmHg 62%
    15:00 +28°C° 0.5 mm 2 mps 685 mmHg 61%
    16:00 +27°C° 0.5 mm 2 mps 685 mmHg 67%
    17:00 +26°C° 0.5 mm 2 mps 685 mmHg 72%
    18:00 +25°C° 0.5 mm 2 mps 685 mmHg 78%
    19:00 +24°C° 2 mm 2 mps 685 mmHg 83%
    20:00 +22°C° 2 mm 1 mps 686 mmHg 88%
    21:00 +21°C° 2 mm 1 mps 686 mmHg 93%
    22:00 +20°C° 0.3 mm 1 mps 686 mmHg 93%
    23:00 +20°C° 0.3 mm 1 mps 686 mmHg 93%

    30 June, Sunday

    Time Temperature Precipitation Wind Pressure Humidity
    00:00 +20°C° 0.3 mm 1 mps 687 mmHg 93%
    01:00 +20°C° 0 mm 1 mps 686 mmHg 93%
    02:00 +20°C° 0 mm 1 mps 686 mmHg 93%
    03:00 +19°C° 0 mm 1 mps 686 mmHg 93%
    04:00 +20°C° 0.2 mm 1 mps 686 mmHg 92%
    05:00 +20°C° 0.2 mm 1 mps 686 mmHg 91%
    06:00 +18°C° 0.2 mm 0 mps 687 mmHg 91%
    07:00 +21°C° 0.1 mm 1 mps 686 mmHg 86%
    08:00 +22°C° 0.1 mm 1 mps 686 mmHg 81%
    09:00 +23°C° 0.1 mm 2 mps 686 mmHg 76%
    10:00 +24°C° 0.3 mm 2 mps 686 mmHg 73%
    11:00 +25°C° 0.3 mm 2 mps 686 mmHg 71%
    12:00 +26°C° 0.3 mm 2 mps 686 mmHg 68%
    13:00 +26°C° 0.6 mm 2 mps 686 mmHg 68%
    14:00 +26°C° 0.6 mm 2 mps 686 mmHg 68%
    15:00 +26°C° 0.6 mm 2 mps 686 mmHg 68%
    16:00 +25°C° 0.6 mm 2 mps 686 mmHg 72%
    17:00 +24°C° 0.6 mm 3 mps 686 mmHg 76%
    18:00 +22°C° 0.6 mm 3 mps 686 mmHg 79%
    19:00 +20°C° 1.1 mm 2 mps 687 mmHg 84%
    20:00 +20°C° 1.1 mm 1 mps 687 mmHg 88%
    21:00 +17°C° 1.1 mm 0 mps 687 mmHg 93%
    22:00 +19°C° 0 mm 1 mps 688 mmHg 92%
    23:00 +19°C° 0 mm 1 mps 688 mmHg 92%
    Show more